Location: Stoke Bliss
(52.2667°N, 2.5167°W)
Time: 07:19:01
(UTC+00:00)

Envisat - Pass Details

Date: 08 December 2021
Orbit: 764 x 766 km, 98.2° (Epoch: 17 January)

Event Time Altitude Azimuth Distance (km) Brightness Sun altitude
Rises 06:20:12 0° 9° (N) 3,247 6.2 -15.1°
Reaches altitude 10° 06:22:39 10° 1° (N) 2,316 5.3 -14.8°
Maximum altitude 06:27:17 36° 297° (WNW) 1,196 3.5 -14.1°
Drops below altitude 10° 06:31:53 10° 231° (SW) 2,301 5.2 -13.4°
Sets 06:34:20 0° 223° (SW) 3,223 6.0 -13.1°
